Weather in Port Elizabeth

South Africa     33°55′00″S   25°34′14″E
В апреле 2022 года жителям России запретили посещать сайт meteo.paraplan.net по решению Генеральной прокуратуры. Аудитория сайта уменьшилась в 10 раз. Владельцы сайта не видят смысла в поддержке погодного сервера в таких условиях. Сайт будет закрыт в октябре.
temp.,
°C
wind,
m/s
gust,
m/s
humid.,
%
clouds,
%
prec.,
mm/h
press.,
hPa
HPBL,
m
6 october, thu
thu623:00+16wsw3473100 0.0 1016504
02:00+15wsw457971 0.0 1015521
05:00+14w468535 0.0 1015452
08:00+16wsw6773100 0.0 1018868
11:00+18wsw6862100 0.0 1018998
14:00+19sw71059100 0.0 1017949
17:00+17sw81469100 0.0 1017875
20:00+17sw6127787 0.0 10201035
7 october, fri
fri723:00+16wsw61084100 0.1 1022667
02:00+15w6108630 0.6 1022615
05:00+16wsw597951 1.0 1023673
08:00+17wsw57694 1.1 1026987
11:00+20sw44527 0.0 10261454
14:00+19sse435726 0.0 10251011
17:00+18e45620 0.0 1024838
20:00+16ene6107668 0.0 1024573
8 october, sat
sat823:00+16ne61181100 0.0 1023621
02:00+16ene510876 0.0 1020538
05:00+14nne34915 0.0 1018123
08:00+17nne3568100 0.0 1018265
11:00+25ne344190 0.0 1015599
14:00+25ese434640 0.0 1012430
17:00+21ssw34645 0.0 1014210
20:00+17wsw47843 0.0 1016187
9 october, sun
sun923:00+16w36825 0.0 1016148
02:00+16w35855 0.0 1015134
05:00+15w36875 0.0 1016148
08:00+19wsw567954 0.0 1018381
11:00+21sw4574100 0.0 1019686
14:00+22ssw557199 0.1 1019714
17:00+20s4579100 0.0 1021568
20:00+18ese229211 0.1 102349
10 october, mon
mon1023:00+17e2493100 0.1 102396
02:00+17ne2293100 0.2 102131
05:00+17n229393 0.0 102122
08:00+19ne367897 0.0 1022371
11:00+22e5766100 0.0 1020622
14:00+22e797189 0.0 1018536
17:00+20e9148249 0.0 1015471
20:00+19ene91791100 0.0 1015584